Location: Central Coast
(33.3208°S, 151.2336°E)
Time: 11:36:43
(UTC+11:00)

OTV 5 (USA 277) - Pass Details

Date: 14 October 2017
Orbit: 404 x 417 km, 43.0° (Epoch: 07 September)

Event Time Altitude Azimuth Distance (km) Brightness Sun altitude
Exits shadow 04:20:25 14° 48° (NE) 1,225 ? -23.6°
Drops below altitude 10° 04:22:04 10° 77° (ENE) 1,469 ? -23.3°
Sets 04:24:51 0° 102° (ESE) 2,336 ? -22.8°
